When you browse on this site, cookies collect data to enhance your experience and personalize the content and advertising you see.
Visit our Privacy Policy to learn more. By continuing to use the site, you agree to this use of cookies and data.
  • în România
  • Lista ţărilor
  • Pe 7 zile
  • Temperatura apei
  • Hartă satelitară
  • Meteo pe hartă
  • Widget-uri
  • user-avatar
    Intrare

    Meteo pe oră la Tebriz

    Astăzi, 22 Iulie, Luni

    Timp Temperatura Precipitaţii Vânt Presiune Umiditate
    00:00 +28°C° 0 mm 5 m/s 646 mmHg 36%
    01:00 +28°C° 0 mm 5 m/s 646 mmHg 36%
    02:00 +28°C° 0 mm 5 m/s 645 mmHg 37%
    03:00 +28°C° 0 mm 4 m/s 645 mmHg 37%
    04:00 +28°C° 0 mm 4 m/s 645 mmHg 36%
    05:00 +28°C° 0 mm 4 m/s 645 mmHg 35%
    06:00 +28°C° 0 mm 3 m/s 645 mmHg 34%
    07:00 +30°C° 0 mm 3 m/s 646 mmHg 29%
    08:00 +34°C° 0 mm 3 m/s 646 mmHg 23%
    09:00 +36°C° 0 mm 3 m/s 647 mmHg 18%
    10:00 +37°C° 0 mm 3 m/s 647 mmHg 15%
    11:00 +39°C° 0 mm 3 m/s 647 mmHg 13%
    12:00 +40°C° 0 mm 3 m/s 647 mmHg 11%
    13:00 +42°C° 0 mm 3 m/s 646 mmHg 10%
    14:00 +42°C° 0 mm 3 m/s 646 mmHg 10%
    15:00 +42°C° 0 mm 3 m/s 646 mmHg 9%
    16:00 +41°C° 0 mm 4 m/s 645 mmHg 12%
    17:00 +41°C° 0 mm 4 m/s 645 mmHg 14%
    18:00 +40°C° 0 mm 5 m/s 645 mmHg 16%
    19:00 +37°C° 0 mm 5 m/s 645 mmHg 22%
    20:00 +35°C° 0 mm 5 m/s 644 mmHg 28%
    21:00 +33°C° 0 mm 5 m/s 644 mmHg 34%
    22:00 +32°C° 0 mm 5 m/s 644 mmHg 35%
    23:00 +32°C° 0 mm 5 m/s 644 mmHg 35%

    Mâine, 23 Iulie, Marţi

    Timp Temperatura Precipitaţii Vânt Presiune Umiditate
    00:00 +30°C° 0 mm 5 m/s 644 mmHg 35%
    01:00 +29°C° 0 mm 5 m/s 644 mmHg 36%
    02:00 +29°C° 0 mm 5 m/s 644 mmHg 37%
    03:00 +29°C° 0 mm 4 m/s 644 mmHg 37%
    04:00 +28°C° 0 mm 4 m/s 644 mmHg 38%
    05:00 +28°C° 0 mm 4 m/s 644 mmHg 38%
    06:00 +28°C° 0 mm 4 m/s 644 mmHg 38%
    07:00 +30°C° 0 mm 4 m/s 645 mmHg 33%
    08:00 +33°C° 0 mm 5 m/s 645 mmHg 28%
    09:00 +35°C° 0 mm 5 m/s 645 mmHg 23%
    10:00 +36°C° 0 mm 5 m/s 645 mmHg 20%
    11:00 +39°C° 0 mm 5 m/s 645 mmHg 18%
    12:00 +41°C° 0 mm 5 m/s 646 mmHg 15%
    13:00 +40°C° 0 mm 5 m/s 645 mmHg 16%
    14:00 +40°C° 0 mm 4 m/s 644 mmHg 16%
    15:00 +40°C° 0 mm 4 m/s 644 mmHg 16%
    16:00 +38°C° 0 mm 4 m/s 643 mmHg 18%
    17:00 +39°C° 0 mm 5 m/s 643 mmHg 19%
    18:00 +37°C° 0 mm 5 m/s 643 mmHg 21%
    19:00 +35°C° 0 mm 5 m/s 643 mmHg 24%
    20:00 +34°C° 0 mm 4 m/s 643 mmHg 27%
    21:00 +31°C° 0 mm 3 m/s 643 mmHg 30%
    22:00 +30°C° 0 mm 3 m/s 643 mmHg 32%
    23:00 +29°C° 0 mm 3 m/s 643 mmHg 34%

    Poimâine, 24 Iulie, Miercuri

    Timp Temperatura Precipitaţii Vânt Presiune Umiditate
    00:00 +28°C° 0 mm 2 m/s 643 mmHg 35%
    01:00 +27°C° 0 mm 2 m/s 643 mmHg 37%
    02:00 +26°C° 0 mm 2 m/s 643 mmHg 39%
    03:00 +26°C° 0 mm 1 m/s 642 mmHg 40%
    04:00 +26°C° 0 mm 1 m/s 643 mmHg 40%
    05:00 +26°C° 0 mm 1 m/s 643 mmHg 39%
    06:00 +24°C° 0 mm 0 m/s 643 mmHg 39%
    07:00 +28°C° 0 mm 1 m/s 644 mmHg 32%
    08:00 +30°C° 0 mm 1 m/s 644 mmHg 26%
    09:00 +32°C° 0 mm 2 m/s 645 mmHg 20%
    10:00 +34°C° 0 mm 3 m/s 645 mmHg 17%
    11:00 +36°C° 0 mm 4 m/s 645 mmHg 13%
    12:00 +38°C° 0 mm 6 m/s 645 mmHg 9%
    13:00 +39°C° 0 mm 6 m/s 645 mmHg 9%
    14:00 +39°C° 0 mm 6 m/s 645 mmHg 8%
    15:00 +40°C° 0 mm 5 m/s 645 mmHg 7%
    16:00 +39°C° 0 mm 5 m/s 645 mmHg 8%
    17:00 +39°C° 0 mm 5 m/s 645 mmHg 8%
    18:00 +37°C° 0 mm 5 m/s 645 mmHg 9%
    19:00 +35°C° 0 mm 4 m/s 645 mmHg 13%
    20:00 +33°C° 0 mm 4 m/s 644 mmHg 17%
    21:00 +29°C° 0 mm 3 m/s 644 mmHg 21%
    22:00 +28°C° 0 mm 2 m/s 644 mmHg 25%
    23:00 +27°C° 0 mm 2 m/s 644 mmHg 28%

    25 Iulie, Joi

    Timp Temperatura Precipitaţii Vânt Presiune Umiditate
    00:00 +26°C° 0 mm 1 m/s 644 mmHg 31%
    01:00 +26°C° 0 mm 1 m/s 643 mmHg 32%
    02:00 +25°C° 0 mm 1 m/s 643 mmHg 33%
    03:00 +25°C° 0 mm 1 m/s 643 mmHg 34%
    04:00 +26°C° 0 mm 1 m/s 644 mmHg 33%
    05:00 +26°C° 0 mm 1 m/s 644 mmHg 32%
    06:00 +27°C° 0 mm 1 m/s 644 mmHg 31%
    07:00 +29°C° 0 mm 1 m/s 645 mmHg 27%
    08:00 +30°C° 0 mm 1 m/s 645 mmHg 23%
    09:00 +32°C° 0 mm 2 m/s 646 mmHg 19%
    10:00 +35°C° 0 mm 3 m/s 646 mmHg 16%
    11:00 +36°C° 0 mm 4 m/s 646 mmHg 13%
    12:00 +39°C° 0 mm 5 m/s 646 mmHg 10%
    13:00 +40°C° 0 mm 5 m/s 646 mmHg 9%
    14:00 +40°C° 0 mm 5 m/s 646 mmHg 9%
    15:00 +41°C° 0 mm 6 m/s 645 mmHg 8%
    16:00 +40°C° 0 mm 5 m/s 645 mmHg 9%
    17:00 +40°C° 0 mm 5 m/s 645 mmHg 9%
    18:00 +39°C° 0 mm 5 m/s 645 mmHg 9%
    19:00 +36°C° 0 mm 4 m/s 644 mmHg 14%
    20:00 +33°C° 0 mm 4 m/s 644 mmHg 20%
    21:00 +30°C° 0 mm 3 m/s 644 mmHg 26%
    22:00 +29°C° 0 mm 3 m/s 643 mmHg 30%
    23:00 +28°C° 0 mm 4 m/s 643 mmHg 34%

    26 Iulie, Vineri

    Timp Temperatura Precipitaţii Vânt Presiune Umiditate
    00:00 +27°C° 0 mm 4 m/s 643 mmHg 39%
    01:00 +26°C° 0 mm 4 m/s 643 mmHg 39%
    02:00 +26°C° 0 mm 4 m/s 642 mmHg 40%
    03:00 +25°C° 0 mm 4 m/s 642 mmHg 41%
    04:00 +25°C° 0 mm 4 m/s 642 mmHg 41%
    05:00 +25°C° 0 mm 4 m/s 642 mmHg 41%
    06:00 +25°C° 0 mm 3 m/s 643 mmHg 40%
    07:00 +27°C° 0 mm 3 m/s 643 mmHg 34%
    08:00 +29°C° 0 mm 4 m/s 644 mmHg 28%
    09:00 +32°C° 0 mm 4 m/s 644 mmHg 22%
    10:00 +34°C° 0 mm 3 m/s 644 mmHg 19%
    11:00 +35°C° 0 mm 3 m/s 644 mmHg 16%
    12:00 +37°C° 0 mm 3 m/s 644 mmHg 14%
    13:00 +37°C° 0 mm 4 m/s 643 mmHg 11%
    14:00 +39°C° 0 mm 5 m/s 643 mmHg 9%
    15:00 +40°C° 0 mm 6 m/s 643 mmHg 7%
    16:00 +39°C° 0 mm 6 m/s 643 mmHg 8%
    17:00 +38°C° 0 mm 6 m/s 642 mmHg 8%
    18:00 +36°C° 0 mm 5 m/s 642 mmHg 9%
    19:00 +34°C° 0 mm 4 m/s 642 mmHg 16%
    20:00 +30°C° 0 mm 3 m/s 642 mmHg 22%
    21:00 +28°C° 0 mm 2 m/s 641 mmHg 29%
    22:00 +27°C° 0 mm 3 m/s 641 mmHg 34%
    23:00 +26°C° 0 mm 3 m/s 641 mmHg 38%

    27 Iulie, Sâmbătă

    Timp Temperatura Precipitaţii Vânt Presiune Umiditate
    00:00 +25°C° 0 mm 3 m/s 640 mmHg 42%
    01:00 +24°C° 0 mm 3 m/s 640 mmHg 43%
    02:00 +22°C° 0 mm 3 m/s 640 mmHg 45%
    03:00 +22°C° 0 mm 3 m/s 639 mmHg 46%
    04:00 +22°C° 0 mm 3 m/s 640 mmHg 46%
    05:00 +23°C° 0 mm 2 m/s 640 mmHg 47%
    06:00 +23°C° 0 mm 2 m/s 640 mmHg 47%
    07:00 +25°C° 0 mm 2 m/s 640 mmHg 41%
    08:00 +27°C° 0 mm 2 m/s 640 mmHg 34%
    09:00 +29°C° 0 mm 2 m/s 641 mmHg 27%
    10:00 +30°C° 0 mm 2 m/s 641 mmHg 23%
    11:00 +32°C° 0 mm 2 m/s 641 mmHg 19%
    12:00 +34°C° 0 mm 3 m/s 641 mmHg 15%
    13:00 +35°C° 0 mm 4 m/s 641 mmHg 13%
    14:00 +36°C° 0 mm 4 m/s 640 mmHg 11%
    15:00 +36°C° 0 mm 5 m/s 640 mmHg 9%
    16:00 +36°C° 0 mm 5 m/s 640 mmHg 9%
    17:00 +36°C° 0 mm 4 m/s 640 mmHg 9%
    18:00 +36°C° 0 mm 4 m/s 640 mmHg 9%
    19:00 +33°C° 0 mm 4 m/s 640 mmHg 19%
    20:00 +29°C° 0 mm 4 m/s 639 mmHg 28%
    21:00 +26°C° 0 mm 3 m/s 639 mmHg 38%
    22:00 +25°C° 0 mm 4 m/s 639 mmHg 43%
    23:00 +23°C° 0 mm 4 m/s 639 mmHg 47%
    Arată mai mult